Wind_Speed
20 25 28 29 31 33 34 38 41 42 42 42 42 41 41 43 43 41 40 39 38 40 38 27 21 18 20 19 19 18 20 18 18 18 18 19 17 16 15 15 13 14 16 19
17 22 25 29 31 33 36 38 41 42 43 43 41 38 38 39 38 36 35 34 33 25 28 25 20 19 21 20 20 18 20 20 21 21 23 20 17 13 12 13 14 15 18 21
17 21 24 28 31 34 35 38 41 43 44 43 41 36 34 35 36 36 34 33 38 32 28 30 24 18 20 22 24 20 22 23 23 22 22 22 16 11 12 15 17 20 23 25
13 16 18 21 23 26 27 33 39 43 45 44 42 40 31 31 33 34 32 31 32 30 29 31 28 29 27 24 26 23 21 21 22 23 22 18 13 12 14 18 21 22 24 25
14 16 18 21 24 26 28 28 27 29 33 37 39 40 33 34 33 32 29 26 23 27 30 36 35 36 31 28 27 24 20 20 22 23 22 20 17 16 17 20 24 27 27 26
17 20 22 26 30 32 32 31 26 24 26 25 27 30 32 35 32 29 29 27 28 26 28 35 37 32 27 29 28 20 23 27 25 22 19 16 15 19 21 22 24 26 27 24
16 23 28 31 35 37 35 31 31 28 24 20 19 20 24 28 29 26 26 28 31 26 15 19 29 35 34 34 31 22 27 28 23 15 14 15 16 20 22 24 25 24 26 26
22 24 31 37 41 43 39 31 33 31 27 25 20 18 20 19 19 19 17 20 19 18 22 25 32 35 31 28 36 31 24 20 14 13 14 15 18 21 21 23 24 24 26 27
31 32 34 42 47 48 43 36 34 34 33 29 25 25 25 19 18 17 14 17 23 20 19 23 27 34 35 28 28 27 22 10 8 10 14 17 19 20 22 26 27 26 27 26
40 44 44 49 50 50 50 42 33 31 30 23 17 15 18 20 18 21 16 17 21 18 16 21 29 23 20 24 31 27 17 13 11 13 16 18 19 19 22 26 27 26 27 26
49 53 55 52 44 33 31 31 28 28 30 23 17 16 17 20 21 26 20 17 19 21 18 24 25 17 9 11 20 21 13 10 11 16 18 21 23 23 26 28 26 26 27 25
52 54 48 37 25 18 13 14 22 25 29 22 15 13 16 18 14 20 22 18 16 9 4 5 9 4 6 3 3 5 8 10 16 22 25 26 25 24 26 26 24 25 27 26
50 42 30 16 9 9 6 4 10 12 18 21 15 10 12 12 9 12 10 12 6 9 9 6 5 3 1 3 5 6 10 16 19 22 25 26 24 24 25 24 22 21 22 23
38 27 16 10 2 4 4 9 3 8 7 15 16 11 7 9 14 19 16 11 5 5 8 1 4 3 4 7 8 9 11 14 18 21 19 20 23 25 28 26 23 21 20 21
24 13 12 8 6 2 8 17 13 14 15 13 10 8 9 12 17 24 23 18 11 8 12 6 3 7 13 15 12 11 14 15 19 21 20 20 24 26 25 25 21 24 23 21
17 15 11 13 10 7 17 23 19 13 10 5 5 2 6 11 16 19 19 18 15 14 16 13 13 15 19 19 15 13 14 14 18 21 21 23 27 23 27 25 21 22 19 15
27 24 18 17 13 16 19 21 20 16 11 10 8 6 7 8 14 10 8 8 10 10 12 20 18 12 18 19 19 20 16 15 17 19 23 24 25 26 28 28 25 22 19 17
35 34 29 24 21 19 21 22 23 22 18 14 14 12 10 11 13 13 6 5 8 1 2 6 10 12 14 13 14 14 14 14 17 19 21 22 22 22 22 24 25 23 20 17
33 35 33 28 23 21 21 23 23 22 21 20 19 13 14 15 16 17 13 7 7 6 5 4 4 6 7 9 12 12 13 15 16 18 22 25 25 23 21 19 20 20 19 16
29 30 26 24 22 22 20 18 18 20 21 17 13 11 12 14 17 17 16 10 8 9 7 4 1 2 4 7 10 13 14 14 14 17 21 23 23 21 20 20 19 19 18 17
26 26 23 23 23 22 20 19 18 18 18 13 12 13 15 19 19 18 15 13 12 11 8 5 3 4 7 9 12 13 14 14 14 17 19 20 21 22 23 22 20 18 17 17
24 24 22 20 18 17 15 13 13 15 20 17 14 14 14 15 16 15 13 11 10 8 7 5 6 8 10 13 14 15 14 13 14 15 16 17 20 22 22 19 18 17 16 17
21 21 21 17 14 12 12 12 12 11 11 13 14 12 12 13 13 12 11 9 9 10 10 11 12 12 13 14 15 15 14 14 15 17 17 18 20 20 18 17 16 15 17 19
17 14 14 11 9 7 7 9 10 11 6 6 9 10 11 11 10 9 9 10 11 13 13 13 13 14 15 15 15 15 16 17 18 18 18 18 18 18 18 16 16 17 18 19
27 17 11 6 6 6 1 3 4 6 5 3 5 6 7 9 9 8 10 11 11 13 12 12 12 14 15 14 13 13 14 16 16 16 16 17 17 17 17 16 15 15 16 16
28 29 24 14 9 9 7 4 6 4 4 5 5 2 2 5 6 6 7 9 11 12 12 13 13 13 14 14 14 15 15 14 14 15 15 14 15 16 16 14 13 14 16 15
Wind_Direction
266 264 265 267 269 270 269 268 268 267 268 268 267 266 268 271 274 277 280 281 269 253 251 244 244 258 267 266 269 276 282 274 267 263 267 276 281 293 298 298 295 297 303 302
272 266 266 265 267 269 270 269 268 267 269 269 268 267 268 268 270 273 274 269 267 247 239 255 257 257 265 266 270 269 272 268 265 268 276 280 284 290 296 298 298 298 299 297
270 275 275 273 274 274 274 270 268 267 267 268 268 267 267 269 271 273 276 268 262 269 251 263 266 257 259 263 267 268 270 272 274 277 283 284 283 287 292 299 305 304 303 301
300 301 297 294 290 287 282 276 269 266 265 265 265 262 257 260 266 269 276 276 274 257 249 262 258 248 243 253 263 264 263 269 273 278 279 278 284 294 302 307 306 303 301 299
317 310 310 314 312 307 302 295 284 271 269 268 264 261 255 253 257 260 264 271 269 245 250 261 263 257 237 246 248 252 258 266 270 272 277 285 294 303 306 308 309 308 306 302
316 310 312 313 308 303 301 301 292 273 275 277 267 262 256 251 249 249 250 254 259 251 249 256 256 244 232 256 250 239 261 266 267 268 274 279 293 303 307 309 307 305 303 296
310 313 312 310 303 300 299 299 294 283 275 277 262 251 250 247 246 245 247 243 239 245 245 237 234 233 229 239 240 234 252 257 261 258 266 279 294 302 303 301 299 300 297 291
311 312 308 302 298 296 294 289 282 279 271 269 266 248 228 228 231 233 246 244 229 227 235 231 228 230 228 239 237 235 234 242 243 258 274 288 294 294 295 292 291 289 289 292
306 307 302 295 292 292 290 281 274 271 269 272 269 254 234 219 217 221 232 225 207 216 217 225 232 235 229 240 240 230 240 243 270 289 290 287 288 290 287 284 282 283 286 293
307 305 300 293 289 286 282 278 265 258 262 265 254 250 252 247 242 245 237 229 215 223 218 225 240 222 191 228 224 231 242 263 281 284 283 283 284 284 285 286 286 286 286 289
311 309 307 304 299 289 273 263 248 242 245 245 256 263 243 232 240 240 229 227 231 228 230 227 233 249 225 220 225 232 256 277 280 278 273 277 282 283 281 281 280 277 277 282
312 309 311 311 304 293 279 260 239 238 232 237 241 272 247 242 231 223 222 236 240 262 344 281 259 293 20 22 316 280 312 291 276 276 276 275 276 283 284 286 285 279 275 273
316 317 322 323 316 307 305 290 254 221 224 239 241 239 240 221 226 212 214 240 224 327 344 353 333 350 303 243 259 259 253 263 270 274 279 279 279 290 289 283 281 282 274 261
324 325 340 4 74 255 17 43 216 205 166 198 209 205 202 229 251 255 254 256 224 279 293 358 108 118 295 286 286 286 283 283 282 280 283 284 276 281 278 273 277 278 265 253
342 341 349 34 108 109 60 70 106 172 173 167 196 230 275 273 266 266 260 249 242 232 244 189 199 285 289 289 290 287 288 294 294 294 285 288 280 289 289 283 284 282 273 254
26 21 38 88 93 56 77 83 86 115 157 142 139 199 296 304 289 284 279 269 268 267 265 267 289 291 282 282 278 276 280 292 297 302 305 321 317 307 315 326 328 317 314 279
51 54 79 91 82 81 77 80 82 89 102 112 118 80 14 342 351 311 294 263 243 263 261 251 267 280 266 274 287 293 283 290 304 312 312 319 321 321 324 328 327 339 336 316
61 62 67 80 87 76 71 77 78 80 84 103 105 87 39 21 33 37 17 230 210 217 255 266 276 271 255 260 281 299 291 298 304 309 310 310 311 314 320 324 332 332 325 312
57 66 71 72 68 66 80 84 85 79 75 87 99 94 80 59 48 66 79 96 136 141 140 160 225 254 258 263 271 286 301 305 307 312 315 315 316 317 319 320 320 319 318 312
62 71 73 68 64 73 82 73 76 66 64 73 88 105 94 75 68 69 71 65 81 93 85 80 58 291 272 272 284 293 297 303 308 312 316 318 319 317 317 318 321 320 317 311
67 67 65 64 66 68 61 71 71 60 54 63 77 94 81 70 71 76 75 68 60 59 54 38 359 308 291 293 297 300 305 305 305 311 317 324 329 328 326 324 324 322 319 312
69 68 67 72 74 65 60 60 60 58 62 79 88 85 81 77 75 72 62 51 41 34 33 15 347 330 326 322 315 308 303 297 300 306 312 321 328 328 328 327 326 326 328 324
63 68 73 80 74 68 59 53 51 49 53 75 95 103 97 90 84 78 66 51 30 18 11 1 351 345 339 332 325 317 312 309 309 307 305 312 319 323 324 324 322 324 326 324
51 50 56 71 71 53 56 59 59 72 81 99 96 103 103 93 83 76 64 45 21 8 2 358 356 354 349 342 337 332 327 324 320 316 313 311 314 320 325 323 320 322 323 323
42 42 41 42 24 4 307 206 126 86 73 114 113 96 89 79 63 45 35 22 5 1 4 7 5 358 355 352 349 346 338 328 325 325 322 321 324 330 331 327 325 325 325 325
36 42 45 37 4 314 308 250 203 169 115 125 132 114 114 88 69 40 24 11 358 1 7 5 360 359 357 354 353 352 352 351 349 346 340 339 340 338 337 337 335 335 334 334
Height
5860 5861 5860 5859 5857 5855 5855 5853 5851 5852 5852 5852 5853 5855 5857 5855 5855 5857 5856 5855 5855 5856 5855 5855 5858 5861 5863 5864 5864 5864 5865 5866 5865 5865 5865 5865 5863 5861 5861 5859 5858 5857 5856 5854
5855 5853 5853 5851 5849 5846 5844 5842 5839 5840 5839 5838 5840 5844 5845 5845 5846 5847 5848 5848 5849 5851 5853 5851 5851 5854 5855 5857 5858 5858 5858 5860 5859 5859 5858 5859 5858 5856 5855 5853 5852 5851 5849 5847
5849 5848 5846 5844 5841 5838 5836 5833 5830 5829 5827 5826 5828 5833 5834 5833 5835 5836 5838 5839 5842 5845 5847 5846 5845 5846 5849 5851 5851 5851 5850 5852 5852 5853 5854 5854 5853 5852 5851 5849 5847 5845 5842 5841
5846 5843 5841 5837 5834 5831 5828 5823 5819 5816 5816 5815 5817 5819 5827 5826 5825 5825 5825 5826 5827 5830 5835 5838 5838 5840 5843 5845 5844 5844 5844 5845 5846 5847 5849 5849 5847 5847 5845 5843 5840 5838 5837 5835
5842 5838 5834 5830 5826 5822 5817 5813 5810 5807 5806 5805 5805 5808 5817 5815 5814 5815 5818 5818 5820 5820 5824 5829 5829 5832 5836 5837 5835 5835 5835 5837 5840 5842 5843 5844 5843 5841 5838 5835 5833 5832 5829 5827
5835 5831 5828 5823 5817 5812 5808 5804 5803 5801 5799 5799 5797 5800 5803 5800 5801 5804 5807 5810 5813 5816 5820 5821 5823 5827 5827 5830 5831 5828 5826 5829 5834 5836 5837 5838 5838 5835 5832 5830 5828 5826 5824 5822
5832 5826 5819 5814 5807 5802 5799 5797 5794 5794 5794 5793 5791 5791 5791 5792 5795 5798 5802 5804 5805 5811 5814 5813 5817 5822 5819 5820 5825 5820 5820 5823 5826 5828 5830 5831 5830 5828 5825 5824 5822 5818 5815 5814
5826 5823 5813 5803 5796 5791 5790 5792 5789 5786 5787 5788 5787 5787 5787 5788 5790 5793 5797 5800 5803 5803 5806 5807 5808 5809 5811 5811 5814 5811 5817 5819 5822 5823 5824 5824 5824 5821 5818 5817 5814 5809 5807 5806
5817 5813 5806 5794 5785 5778 5775 5778 5780 5780 5779 5780 5781 5781 5784 5784 5787 5789 5792 5795 5798 5798 5801 5804 5805 5805 5800 5803 5806 5808 5814 5817 5820 5820 5820 5817 5815 5813 5812 5810 5805 5802 5802 5801
5803 5795 5791 5782 5775 5765 5758 5761 5768 5771 5771 5773 5775 5777 5780 5781 5783 5785 5786 5788 5789 5790 5793 5796 5797 5795 5790 5796 5798 5803 5809 5813 5814 5815 5813 5811 5809 5808 5805 5803 5799 5796 5796 5795
5788 5777 5766 5757 5751 5749 5746 5747 5753 5759 5763 5766 5769 5775 5774 5775 5777 5777 5780 5784 5784 5784 5788 5791 5790 5793 5791 5793 5799 5805 5810 5810 5810 5808 5806 5806 5804 5801 5798 5795 5791 5789 5789 5787
5776 5763 5751 5743 5738 5737 5738 5739 5744 5749 5754 5760 5766 5772 5770 5771 5773 5774 5775 5778 5782 5783 5779 5781 5786 5790 5794 5797 5801 5804 5805 5806 5805 5802 5800 5799 5796 5790 5787 5786 5786 5784 5781 5779
5761 5751 5742 5736 5735 5734 5735 5735 5737 5743 5749 5756 5762 5768 5766 5766 5770 5769 5771 5775 5779 5780 5778 5782 5784 5787 5793 5796 5798 5799 5799 5799 5797 5794 5792 5790 5786 5783 5782 5780 5778 5774 5772 5772
5748 5740 5737 5734 5733 5732 5734 5736 5736 5741 5746 5751 5757 5763 5764 5765 5765 5765 5768 5771 5773 5776 5776 5781 5783 5784 5787 5790 5791 5791 5792 5793 5791 5787 5785 5782 5779 5778 5776 5774 5771 5768 5766 5766
5747 5740 5736 5734 5734 5735 5736 5737 5738 5741 5747 5753 5758 5760 5761 5762 5762 5759 5762 5765 5768 5771 5775 5779 5781 5782 5784 5785 5786 5788 5788 5788 5786 5783 5782 5780 5779 5775 5771 5770 5767 5765 5762 5761
5749 5745 5740 5739 5740 5740 5741 5742 5744 5746 5751 5755 5758 5763 5764 5762 5759 5757 5758 5761 5766 5770 5775 5777 5778 5777 5778 5779 5781 5783 5784 5784 5782 5779 5776 5771 5772 5768 5765 5765 5764 5761 5759 5758
5757 5751 5749 5749 5748 5748 5750 5751 5752 5753 5756 5759 5762 5765 5764 5762 5760 5755 5755 5758 5765 5771 5774 5775 5776 5778 5778 5778 5778 5779 5779 5777 5775 5774 5771 5768 5767 5765 5761 5758 5757 5753 5752 5753
5766 5762 5760 5758 5759 5758 5761 5759 5760 5760 5761 5762 5764 5765 5765 5763 5762 5759 5760 5762 5765 5768 5770 5772 5774 5776 5777 5777 5778 5778 5777 5774 5773 5771 5769 5767 5766 5764 5759 5755 5749 5746 5747 5747
5775 5773 5771 5769 5769 5768 5767 5767 5767 5767 5767 5766 5766 5767 5767 5767 5766 5765 5766 5767 5768 5769 5771 5773 5774 5774 5774 5775 5776 5774 5773 5772 5771 5769 5766 5763 5760 5757 5755 5752 5750 5746 5743 5742
5783 5782 5780 5778 5776 5775 5776 5774 5774 5774 5772 5771 5770 5770 5771 5772 5772 5772 5772 5773 5773 5772 5772 5773 5773 5774 5774 5775 5775 5773 5771 5770 5768 5765 5762 5758 5755 5752 5749 5747 5744 5741 5739 5737
5790 5788 5786 5783 5781 5781 5781 5780 5780 5779 5779 5776 5775 5775 5775 5775 5776 5777 5778 5778 5777 5775 5776 5775 5775 5775 5775 5775 5773 5770 5768 5766 5764 5761 5757 5754 5750 5746 5743 5740 5737 5735 5733 5731
5796 5793 5791 5789 5788 5789 5786 5785 5786 5785 5781 5779 5778 5778 5779 5779 5779 5779 5780 5780 5780 5779 5778 5778 5777 5776 5773 5772 5770 5768 5767 5764 5761 5758 5755 5752 5748 5744 5740 5736 5733 5731 5729 5727
5801 5798 5795 5795 5795 5792 5789 5788 5786 5785 5785 5784 5783 5782 5781 5781 5782 5783 5783 5782 5781 5780 5778 5777 5775 5774 5772 5769 5767 5765 5764 5762 5759 5756 5753 5750 5746 5741 5737 5734 5732 5729 5726 5723
5805 5803 5800 5797 5796 5794 5792 5790 5788 5787 5786 5786 5786 5786 5786 5785 5785 5785 5783 5781 5781 5779 5777 5775 5774 5772 5770 5768 5766 5763 5760 5758 5756 5753 5749 5746 5743 5738 5734 5731 5728 5725 5722 5719
5809 5805 5803 5801 5799 5796 5794 5791 5789 5788 5787 5787 5787 5786 5786 5786 5786 5785 5783 5782 5781 5779 5777 5776 5774 5772 5770 5767 5765 5763 5760 5756 5754 5750 5746 5741 5738 5734 5731 5728 5725 5722 5719 5716
5812 5808 5805 5802 5799 5797 5794 5790 5789 5789 5789 5788 5788 5787 5787 5786 5786 5785 5784 5783 5782 5780 5778 5776 5774 5771 5769 5767 5764 5761 5758 5755 5751 5748 5743 5739 5735 5732 5728 5725 5722 5719 5716 5713